Location: Songkhla
(7.2000°N, 100.6000°E)
Time: 06:47:57
(UTC+07:00)

Ariane H10 - Pass Details

Date: 16 April 2026
Orbit: 120 x 954 km, 7.1° (Epoch: 16 April)

Event Time Altitude Azimuth Distance (km) Brightness Sun altitude
Rises 19:53:27 0° 270° (W) 3,165 8.1 -22.0°
Reaches altitude 10° 19:55:49 10° 270° (W) 2,323 7.0 -22.6°
Maximum altitude 20:01:36 89° 180° (S) 846 3.6 -24.0°
Enters shadow 20:02:50 59° 93° (E) 972 3.6 -24.3°
